Regional Weather Roundup
Issued by NWS Cleveland, OH

Home | Current Version | Previous Version | Graphics & Text | Print | Product List | Glossary On
Versions: 1 2 3 4 5 6 7 8 9 10 11 12 13 14 15 16 17 18 19 20 21 22 23 24 25 26 27 28 29 30 31 32 33 34 35 36 37 38 39 40 41 42 43 44 45 46 47 48 49 50
000
ASUS41 KCLE 181600
RWRCLE
OHIO REGIONAL WEATHER ROUNDUP
NATIONAL WEATHER SERVICE WILMINGTON, OH
1100 AM EST THU DEC 18 2014

NOTE: "FAIR" INDICATES FEW OR NO CLOUDS BELOW 12,000 FEET WITH NO
SIGNIFICANT WEATHER AND/OR OBSTRUCTIONS TO VISIBILITY.

OHZ001>008-015>018-024>027-034-035-043-044-181700-
   NORTHWEST OHIO

CITY           SKY/WX    TMP DP  RH WIND       PRES   REMARKS
DEFIANCE       CLOUDY    30  24  78 W7        30.26S WCI  23
FINDLAY        CLOUDY    30  23  75 W10       30.24S WCI  21
TOLEDO EXPRESS CLOUDY    30  23  75 W12       30.23F WCI  20
TOLEDO METCALF CLOUDY    31  23  72 W10       30.24F WCI  22
LIMA           CLOUDY    31  21  66 VRB6      30.25S WCI  25
$$

OHZ009>014-019>023-028>033-038-089-181700-
   NORTHEAST OHIO

CITY           SKY/WX    TMP DP  RH WIND       PRES   REMARKS
CLE-HOPKINS    FLURRIES  30  23  75 SW9       30.24R WCI  22
CLE-LAKEFRONT  CLOUDY    31  24  75 SW12      30.22R WCI  22
CUY CO. ARPT   NOT AVBL
LORAIN-ELYRIA  CLOUDY    29  23  78 W10       30.23R WCI  20
ASHTABULA      CLOUDY    31  25  78 W9        30.18R WCI  23
AKRON-CANTON   LGT SNOW  29  22  75 W8        30.21R WCI  21
WOOSTER        NOT AVBL
MANSFIELD      CLOUDY    27  21  78 SW7       30.21F WCI  19
YOUNGSTOWN     LGT SNOW  28  23  81 W9        30.17R WCI  19
$$

OHZ042-051>053-060>062-070>072-077>081-181700-
  SOUTHWEST OHIO

CITY           SKY/WX    TMP DP  RH WIND       PRES   REMARKS
CINC-COVINGTON CLOUDY    28  18  66 CALM      30.26F
CINC-LUNKEN    CLOUDY    29  19  66 CALM      30.31F
HAMILTON       CLOUDY    29  18  63 CALM      30.31S
DAYTON         NOT AVBL
WRIGHT-PAT AFB NOT AVBL
DAYTON GENERAL CLOUDY    27  18  69 CALM      30.27R
WILMINGTON     CLOUDY    26  17  68 W5        30.26S WCI  20
$$

OHZ036-037-039>041-045>050-054>059-063>069-073>076-082>088-181700-
  CENTRAL AND SOUTHEAST OHIO

CITY           SKY/WX    TMP DP  RH WIND       PRES   REMARKS
COLUMBUS       CLOUDY    28  19  69 NW6       30.26F WCI  22
OSU AIRPORT    CLOUDY    28  20  71 W6        30.26S WCI  22
BOLTON FIELD   CLOUDY    27  21  80 W3        30.26F
RICKENBACK AFB NOT AVBL
NEWARK         CLOUDY    28  20  71 W7        30.25S WCI  21
MARION         CLOUDY    28  21  75 NW7       30.25S WCI  21
LANCASTER      CLOUDY    28  20  71 VRB3      30.27F
ZANESVILLE     CLOUDY    27  19  72 NW6       30.25S WCI  20
NEW PHILLY     CLOUDY    30  22  72 W5        30.24R WCI  25
$$


USA.gov is the U.S. government's official web portal to all federal, state and local government web resources and services.